Location: Boiro
(42.6475°N, 8.8834°W)
Time: 03:11:11
(UTC+01:00)

Vanguard 2 - Pass Details

Date: 01 December 2021
Orbit: 553 x 2936 km, 32.9° (Epoch: 20 January)

Event Time Altitude Azimuth Distance (km) Brightness Sun altitude
Rises 14:06:55 0° 199° (SSW) 2,865 11.8 24.7°
Reaches altitude 10° 14:10:28 10° 167° (SSE) 2,199 11.2 24.6°
Maximum altitude 14:12:23 12° 144° (SE) 2,218 10.6 24.5°
Drops below altitude 10° 14:14:33 10° 122° (ESE) 2,561 10.5 24.4°
Sets 14:19:38 0° 94° (E) 4,043 11.1 24.2°
